Home > Weather > Monthey > Past weeks

Flag for Switzerland Past Weather in Monthey, Valais, Switzerland — Yesterday and Last 2 Weeks

Now
66 °F

Mild.


Feels Like: 66 °F
Forecast: 61 / 74 °F
Wind: 6 mph from South

Location: Aigle

Current Time: Jul 31, 2016 at 5:37:51 AM

Latest Report: Jul 31, 2016 at 4:00 AM


Visibility: N/A

Pressure: 30.00 "Hg

Humidity: 80%

Dew Point: 59 °F

Location of MontheyLocation

Past Weather in Monthey — Graph

°F

Monthey Temperature Yesterday

Maximum temperature yesterday: 81 °F (at 6:00 PM)
Minimum temperature yesterday: 61 °F (at 7:00 AM)
Average temperature yesterday: 71 °F

High & Low Weather Summary for the Past Weeks

 TemperatureHumidityPressure
High88 °F (Jul 20, 5:00 PM)97% (Jul 22, 7:00 AM)30.31 "Hg (Jul 22, 7:00 AM)
Low46 °F (Jul 16, 5:00 AM)38% (Jul 16, 5:00 PM)29.90 "Hg (Jul 20, 5:00 PM)
Average70 °F74%30.05 "Hg
* Reported Jul 16 4:00 AM — Jul 31 4:00 AM, Monthey, Weather by CustomWeather, © 2016

Note: Actual official high and low records may vary slightly from our data, if they occured in-between our weather recording intervals... More about our weather records

Advertising

Monthey Weather History for the Previous 24 Hours

Scroll right to see more
 ConditionsComfort  
Time TempWeatherWind HumidityBarometerVisibility
4:00 AM
Sun, Jul 31
66 °FMild.6 mph80%30.00 "HgN/A
3:00 AM64 °FMild.8 mph92%30.03 "HgN/A
1:00 AM74 °FMild.14 mph63%29.96 "HgN/A
12:00 AM70 °FMild.2 mph67%29.90 "HgN/A
11:00 PM
Sat, Jul 30
71 °FMild.5 mph67%29.91 "HgN/A
10:00 PM73 °FMild.3 mph61%29.90 "HgN/A
9:00 PM73 °FMild.6 mph62%29.90 "HgN/A
8:00 PM76 °FScattered clouds.3 mph60%29.90 "Hg28 mi
7:00 PM80 °FWarm.3 mph53%29.90 "HgN/A
6:00 PM81 °FWarm.6 mph53%29.92 "HgN/A
5:00 PM76 °FLight rain. Overcast.6 mph64%29.95 "Hg19 mi
4:00 PM76 °FMild.3 mph72%29.98 "HgN/A
3:00 PM79 °FWarm.3 mph62%29.95 "HgN/A
2:00 PM75 °FPartly sunny.1 mph68%29.98 "Hg25 mi
1:00 PM78 °FWarm.5 mph61%29.95 "HgN/A
12:00 PM79 °FWarm.6 mph60%29.93 "HgN/A
11:00 AM77 °FPassing clouds.5 mph56%29.94 "Hg25 mi
10:00 AM75 °FMild.5 mph61%29.96 "HgN/A
9:00 AM72 °FMild.3 mph59%29.97 "HgN/A
8:00 AM67 °FPassing clouds.5 mph77%29.98 "Hg25 mi
7:00 AM61 °FCool.1 mph92%30.00 "HgN/A
6:00 AM62 °FCool.3 mph86%29.99 "HgN/A
5:00 AM64 °FClear.7 mph84%29.98 "Hg16 mi
Weather by CustomWeather, © 2016

See weather overviewHow to use our weather pages